| time (UTC) | temp C | wind direction | speed KPH | gust KPH | rain 1hr cm | rain 24hr cm | rain mn cm | humidity % | barometer mb |
| 20260901203410 | 13 | 263 | 0.0 | 1.6 | 0.00 | 0.00 | 0.00 | 90 | 1020.4 |
| 20260901202410 | 13 | 263 | 0.0 | 1.6 | 0.00 | 0.00 | 0.00 | 89 | 1020.3 |
| 20260901201411 | 13 | 263 | 0.0 | 0.0 | 0.00 | 0.00 | 0.00 | 88 | 1020.2 |
| 20260901200410 | 13 | 263 | 0.0 | 1.6 | 0.00 | 0.00 | 0.00 | 88 | 1020.3 |
| 20260901195410 | 13 | 263 | 0.0 | 1.6 | 0.00 | 0.00 | 0.00 | 87 | 1020.3 |
| 20260901194410 | 14 | 263 | 0.0 | 3.2 | 0.00 | 0.00 | 0.00 | 86 | 1020.2 |
| 20260901193410 | 14 | 263 | 0.0 | 1.6 | 0.00 | 0.00 | 0.00 | 85 | 1020.2 |
| 20260901192410 | 15 | 263 | 0.0 | 3.2 | 0.00 | 0.00 | 0.00 | 84 | 1020.3 |
| 20260901190410 | 15 | 265 | 0.0 | 4.8 | 0.00 | 0.00 | 0.00 | 82 | 1020.3 |
| 20260901183410 | 16 | 273 | 1.6 | 4.8 | 0.00 | 0.00 | 0.00 | 77 | 1020.2 |
| 20260901182410 | 17 | 275 | 3.2 | 6.4 | 0.00 | 0.00 | 0.00 | 75 | 1020.1 |
| 20260901181410 | 17 | 300 | 3.2 | 9.7 | 0.00 | 0.00 | 0.00 | 74 | 1020.0 |
| 20260901180410 | 17 | 264 | 4.8 | 12.9 | 0.00 | 0.00 | 0.00 | 74 | 1020.1 |
| 20260901175410 | 17 | 275 | 6.4 | 16.1 | 0.00 | 0.00 | 0.00 | 73 | 1020.0 |
| 20260901174410 | 18 | 312 | 4.8 | 11.3 | 0.00 | 0.00 | 0.00 | 73 | 1019.9 |
| 20260901172410 | 18 | 311 | 3.2 | 9.7 | 0.00 | 0.00 | 0.00 | 71 | 1019.8 |
| 20260901170411 | 19 | 286 | 4.8 | 12.9 | 0.00 | 0.00 | 0.00 | 69 | 1019.6 |
| 20260901165410 | 19 | 289 | 3.2 | 14.5 | 0.00 | 0.00 | 0.00 | 70 | 1019.5 |
| 20260901164410 | 19 | 290 | 6.4 | 12.9 | 0.00 | 0.00 | 0.00 | 68 | 1019.5 |
| 20260901163410 | 20 | 287 | 9.7 | 20.9 | 0.00 | 0.00 | 0.00 | 65 | 1019.5 |
| 20260901160411 | 20 | 234 | 8.0 | 20.9 | 0.00 | 0.00 | 0.00 | 66 | 1019.5 |
| 20260901155410 | 20 | 298 | 11.3 | 25.7 | 0.00 | 0.00 | 0.00 | 63 | 1019.3 |
| 20260901154410 | 20 | 279 | 9.7 | 17.7 | 0.00 | 0.00 | 0.00 | 65 | 1019.3 |
| 20260901150410 | 20 | 294 | 12.9 | 25.7 | 0.00 | 0.00 | 0.00 | 63 | 1019.1 |
| 20260901145410 | 20 | 283 | 9.7 | 22.5 | 0.00 | 0.00 | 0.00 | 62 | 1019.1 |
| 20260901144410 | 20 | 338 | 8.0 | 17.7 | 0.00 | 0.00 | 0.00 | 62 | 1019.1 |
| 20260901143410 | 21 | 309 | 9.7 | 19.3 | 0.00 | 0.00 | 0.00 | 59 | 1019.1 |
| 20260901142404 | 22 | 289 | 12.9 | 25.7 | 0.00 | 0.00 | 0.00 | 57 | 1019.0 |
| 20260901141404 | 21 | 321 | 9.7 | 27.4 | 0.00 | 0.00 | 0.00 | 62 | 1018.9 |
| 20260901140406 | 22 | 211 | 12.9 | 22.5 | 0.00 | 0.00 | 0.00 | 58 | 1018.9 |
| 20260901135405 | 22 | 271 | 9.7 | 20.9 | 0.00 | 0.20 | 0.00 | 59 | 1018.8 |
| 20260901134406 | 21 | 300 | 11.3 | 19.3 | 0.00 | 0.20 | 0.00 | 64 | 1018.8 |
| 20260901132404 | 21 | 286 | 8.0 | 29.0 | 0.00 | 0.20 | 0.00 | 61 | 1018.7 |
| 20260901131404 | 21 | 279 | 12.9 | 24.1 | 0.00 | 0.20 | 0.00 | 60 | 1018.8 |
| 20260901125404 | 21 | 311 | 11.3 | 24.1 | 0.00 | 0.23 | 0.00 | 62 | 1018.7 |
| 20260901124404 | 21 | 338 | 12.9 | 27.4 | 0.00 | 0.23 | 0.00 | 61 | 1018.7 |
| 20260901123404 | 22 | 321 | 11.3 | 20.9 | 0.00 | 0.23 | 0.00 | 66 | 1018.7 |
| 20260901122404 | 21 | 265 | 8.0 | 17.7 | 0.00 | 0.23 | 0.00 | 66 | 1018.6 |
| 20260901121404 | 20 | 331 | 11.3 | 29.0 | 0.00 | 0.23 | 0.00 | 67 | 1018.6 |
| 20260901120404 | 21 | 219 | 14.5 | 33.8 | 0.00 | 0.23 | 0.00 | 64 | 1018.7 |
| 20260901115404 | 20 | 257 | 9.7 | 25.7 | 0.00 | 0.28 | 0.00 | 68 | 1018.5 |
| 20260901113405 | 21 | 313 | 11.3 | 25.7 | 0.00 | 0.28 | 0.00 | 70 | 1018.6 |
| 20260901112405 | 20 | 339 | 11.3 | 22.5 | 0.00 | 0.28 | 0.00 | 71 | 1018.6 |
| 20260901111404 | 20 | 297 | 11.3 | 22.5 | 0.00 | 0.28 | 0.00 | 69 | 1018.6 |
| 20260901110404 | 20 | 248 | 12.9 | 24.1 | 0.00 | 0.28 | 0.00 | 70 | 1018.6 |
| 20260901105406 | 20 | 284 | 9.7 | 25.7 | 0.00 | 0.41 | 0.00 | 71 | 1018.6 |
| 20260901103404 | 20 | 284 | 8.0 | 20.9 | 0.00 | 0.41 | 0.00 | 74 | 1018.6 |
| 20260901102404 | 18 | 324 | 12.9 | 25.7 | 0.00 | 0.41 | 0.00 | 76 | 1018.7 |
| 20260901101404 | 18 | 295 | 9.7 | 22.5 | 0.00 | 0.41 | 0.00 | 77 | 1018.5 |
| 20260901100404 | 18 | 259 | 9.7 | 20.9 | 0.00 | 0.41 | 0.00 | 77 | 1018.6 |
| 20260901094404 | 18 | 281 | 9.7 | 20.9 | 0.00 | 0.41 | 0.00 | 78 | 1018.4 |
| 20260901093404 | 18 | 317 | 11.3 | 24.1 | 0.00 | 0.41 | 0.00 | 79 | 1018.3 |
| 20260901092404 | 18 | 305 | 11.3 | 24.1 | 0.00 | 0.41 | 0.00 | 79 | 1018.2 |
| 20260901091404 | 18 | 50 | 12.9 | 27.4 | 0.00 | 0.41 | 0.00 | 78 | 1018.1 |
| 20260901090404 | 18 | 242 | 12.9 | 27.4 | 0.00 | 0.41 | 0.00 | 77 | 1018.1 |
| 20260901085404 | 18 | 303 | 11.3 | 24.1 | 0.00 | 0.41 | 0.00 | 79 | 1017.9 |
| 20260901084405 | 18 | 277 | 9.7 | 24.1 | 0.00 | 0.41 | 0.00 | 79 | 1017.8 |
| 20260901081404 | 18 | 225 | 9.7 | 20.9 | 0.00 | 0.41 | 0.00 | 86 | 1017.5 |
| 20260901080404 | 18 | 254 | 6.4 | 19.3 | 0.00 | 0.41 | 0.00 | 88 | 1017.3 |
| 20260901074404 | 17 | 225 | 8.0 | 20.9 | 0.00 | 0.41 | 0.00 | 91 | 1017.2 |
| 20260901073404 | 17 | 293 | 8.0 | 20.9 | 0.00 | 0.41 | 0.00 | 92 | 1017.2 |
| 20260901072404 | 16 | 261 | 8.0 | 19.3 | 0.00 | 0.41 | 0.00 | 93 | 1017.1 |
| 20260901070404 | 16 | 258 | 6.4 | 17.7 | 0.00 | 0.41 | 0.00 | 95 | 1017.1 |
| 20260901065404 | 16 | 254 | 4.8 | 14.5 | 0.00 | 0.41 | 0.00 | 96 | 1017.0 |
| 20260901064404 | 15 | 290 | 6.4 | 14.5 | 0.00 | 0.41 | 0.00 | 96 | 1017.0 |
| 20260901062404 | 15 | 209 | 1.6 | 8.0 | 0.00 | 0.41 | 0.00 | 96 | 1016.8 |
| 20260901061405 | 15 | 294 | 3.2 | 9.7 | 0.00 | 0.41 | 0.00 | 96 | 1016.6 |
| 20260901060404 | 15 | 211 | 3.2 | 11.3 | 0.00 | 0.41 | 0.00 | 96 | 1016.5 |
| 20260901055404 | 15 | 209 | 3.2 | 8.0 | 0.00 | 0.41 | 0.00 | 96 | 1016.5 |
| 20260901054405 | 14 | 157 | 1.6 | 8.0 | 0.00 | 0.41 | 0.00 | 96 | 1016.5 |
| 20260901053404 | 14 | 190 | 1.6 | 4.8 | 0.00 | 0.41 | 0.00 | 96 | 1016.3 |
| 20260901052405 | 14 | 178 | 1.6 | 8.0 | 0.00 | 0.41 | 0.00 | 96 | 1016.3 |
| 20260901050404 | 14 | 209 | 1.6 | 4.8 | 0.00 | 0.41 | 0.00 | 96 | 1016.1 |
| 20260901045404 | 14 | 190 | 3.2 | 6.4 | 0.00 | 0.41 | 0.00 | 96 | 1016.1 |
| 20260901044404 | 14 | 229 | 3.2 | 8.0 | 0.00 | 0.41 | 0.00 | 96 | 1016.0 |
| 20260901043404 | 14 | 209 | 1.6 | 4.8 | 0.00 | 0.41 | 0.00 | 96 | 1016.0 |
| 20260901042404 | 14 | 160 | 3.2 | 8.0 | 0.00 | 0.41 | 0.00 | 96 | 1015.9 |
| 20260901040404 | 14 | 192 | 1.6 | 3.2 | 0.00 | 0.41 | 0.00 | 95 | 1015.6 |
| 20260901035404 | 15 | 189 | 1.6 | 4.8 | 0.00 | 0.43 | 0.00 | 96 | 1015.7 |
| 20260901034404 | 15 | 209 | 1.6 | 4.8 | 0.00 | 0.43 | 0.00 | 95 | 1015.6 |
| 20260901033404 | 15 | 175 | 3.2 | 8.0 | 0.00 | 0.43 | 0.00 | 95 | 1015.6 |
| 20260901032404 | 15 | 234 | 1.6 | 9.7 | 0.00 | 0.43 | 0.00 | 95 | 1015.6 |
| 20260901031405 | 15 | 162 | 1.6 | 6.4 | 0.00 | 0.43 | 0.00 | 95 | 1015.6 |
| 20260901030404 | 15 | 232 | 3.2 | 8.0 | 0.00 | 0.43 | 0.00 | 95 | 1015.6 |
| 20260901025409 | 15 | 259 | 3.2 | 11.3 | 0.00 | 0.43 | 0.00 | 96 | 1015.5 |
| 20260901024409 | 15 | 198 | 3.2 | 9.7 | 0.00 | 0.43 | 0.00 | 96 | 1015.6 |
| 20260901022410 | 15 | 250 | 1.6 | 8.0 | 0.00 | 0.43 | 0.00 | 96 | 1015.5 |
| 20260901021409 | 15 | 255 | 4.8 | 11.3 | 0.00 | 0.43 | 0.00 | 96 | 1015.6 |
| 20260901020409 | 15 | 191 | 4.8 | 12.9 | 0.00 | 0.43 | 0.00 | 96 | 1015.4 |
| 20260901015410 | 15 | 209 | 4.8 | 9.7 | 0.00 | 0.43 | 0.00 | 96 | 1015.4 |
| 20260901014409 | 15 | 221 | 4.8 | 12.9 | 0.00 | 0.43 | 0.00 | 96 | 1015.3 |
| 20260901013409 | 14 | 247 | 4.8 | 11.3 | 0.00 | 0.43 | 0.00 | 96 | 1015.2 |
| 20260901012409 | 14 | 249 | 3.2 | 6.4 | 0.00 | 0.43 | 0.00 | 96 | 1015.2 |
| 20260901011411 | 14 | 229 | 3.2 | 8.0 | 0.00 | 0.43 | 0.00 | 96 | 1015.1 |
| 20260901010409 | 14 | 214 | 3.2 | 6.4 | 0.00 | 0.43 | 0.00 | 96 | 1015.0 |
| 20260901005410 | 14 | 273 | 3.2 | 8.0 | 0.00 | 0.43 | 0.00 | 95 | 1015.0 |
| 20260901004409 | 14 | 256 | 1.6 | 4.8 | 0.00 | 0.43 | 0.00 | 95 | 1014.9 |
| 20260901003409 | 14 | 244 | 1.6 | 6.4 | 0.00 | 0.43 | 0.00 | 95 | 1014.8 |
| 20260901002409 | 15 | 234 | 1.6 | 6.4 | 0.00 | 0.43 | 0.00 | 95 | 1014.8 |
| 20260901001410 | 15 | 285 | 3.2 | 9.7 | 0.00 | 0.43 | 0.00 | 95 | 1014.8 |
| 20260901000409 | 15 | 238 | 3.2 | 11.3 | 0.00 | 0.43 | 0.00 | 95 | 1014.8 |
| 20260831235410 | 15 | 200 | 3.2 | 9.7 | 0.00 | 0.43 | 0.00 | 95 | 1014.7 |
| 20260831233409 | 15 | 266 | 3.2 | 11.3 | 0.00 | 0.43 | 0.00 | 95 | 1014.7 |
| 20260831232409 | 15 | 245 | 4.8 | 14.5 | 0.00 | 0.43 | 0.00 | 95 | 1014.6 |
| 20260831231409 | 15 | 238 | 4.8 | 12.9 | 0.00 | 0.43 | 0.00 | 95 | 1014.5 |
| 20260831230409 | 15 | 37 | 4.8 | 16.1 | 0.00 | 0.43 | 0.00 | 95 | 1014.5 |
| 20260831225409 | 15 | 250 | 4.8 | 14.5 | 0.00 | 0.43 | 0.00 | 94 | 1014.5 |
| 20260831224409 | 15 | 267 | 4.8 | 11.3 | 0.00 | 0.43 | 0.00 | 95 | 1014.4 |
| 20260831223409 | 15 | 261 | 4.8 | 12.9 | 0.00 | 0.43 | 0.00 | 94 | 1014.3 |
| 20260831222409 | 15 | 283 | 6.4 | 14.5 | 0.00 | 0.43 | 0.00 | 94 | 1014.2 |
| 20260831221409 | 15 | 244 | 4.8 | 11.3 | 0.00 | 0.43 | 0.00 | 95 | 1014.2 |
| 20260831220409 | 15 | 267 | 4.8 | 12.9 | 0.00 | 0.43 | 0.00 | 95 | 1014.1 |
| 20260831214409 | 15 | 302 | 4.8 | 12.9 | 0.00 | 0.43 | 0.43 | 94 | 1013.9 |
| 20260831213411 | 15 | 242 | 4.8 | 12.9 | 0.00 | 0.43 | 0.43 | 94 | 1013.9 |
| 20260831212409 | 15 | 277 | 4.8 | 17.7 | 0.00 | 0.43 | 0.43 | 94 | 1013.8 |
| 20260831210409 | 15 | 226 | 6.4 | 12.9 | 0.00 | 0.43 | 0.43 | 94 | 1013.6 |
| 20260831205409 | 15 | 258 | 4.8 | 16.1 | 0.00 | 0.43 | 0.43 | 94 | 1013.4 |
| 20260831204409 | 15 | 241 | 4.8 | 17.7 | 0.00 | 0.43 | 0.43 | 94 | 1013.3 |